Regional Weather Roundup
Issued by NWS

Home | Current Version | Previous Version | Text Only | Print | Product List | Glossary Off
Versions: 1 2 3 4 5 6 7 8 9 10 11 12 13 14 15 16 17 18 19 20 21 22 23 24 25 26 27 28 29 30 31 32 33 34 35 36 37 38 39 40 41 42 43 44 45 46 47 48 49 50

000
ASUS43 KDMX 140507
RWRIA

WEATHER ROUNDUP FOR IOWA
NATIONAL WEATHER SERVICE DES MOINES IA
1200 AM CDT MON JUL 14 2014

NOTE: "FAIR" INDICATES FEW OR NO CLOUDS BELOW 12,000 FEET WITH NO
SIGNIFICANT WEATHER AND/OR OBSTRUCTIONS TO VISIBILITY.

* - THESE STATIONS ARE NOT NWS STATIONS...THUS NOT UNDER NWS
QUALITY CONTROL.  THEY ALSO DO NOT REPORT WEATHER SUCH
AS PRECIPITATION OR FOG.

IAZ001>003-012>014-020>022-031>034-043>046-140600-
   NORTHWEST IOWA

CITY           SKY/WX    TMP DP  RH WIND       PRES   REMARKS
CARROLL *      MOCLDY    68  66  94 NW5       29.96R
CHEROKEE *     CLEAR     66  63  88 N3        29.98S
DENISON *      CLEAR     68  64  88 CALM      29.95S
LE MARS *      CLEAR     66  61  82 N3        30.00S
ORANGE CITY *  CLEAR     68  54  60 N6        30.00S
SHELDON *      CLEAR     59  59 100 NW3       29.99S
SIOUX CITY     PTCLDY    70  62  76 NW7       29.98S
SPENCER        CLEAR     60  59  96 NW5       29.98S
STORM LAKE *   PTCLDY    68  64  88 NW8       29.99S
$$

IAZ055>058-069>071-079>083-090>094-140600-
   SOUTHWEST IOWA

CITY           SKY/WX    TMP DP  RH WIND       PRES   REMARKS
ATLANTIC *     CLEAR     68  66  94 S5        29.96F
AUDUBON *      CLEAR     70  66  88 W6        29.97F
CLARINDA *     CLEAR     68  68 100 CALM      29.99F
COUNCIL BLFS *   N/A     75  72  88 SW6       29.97F
CRESTON *      CLEAR     70  66  88 W5        29.98F
HARLAN  *      CLEAR     64  63  94 SW3       30.00F
LAMONI         CLEAR     72  68  87 W7        29.97S
RED OAK *      CLEAR     68  68 100 CALM      29.98S
SHENANDOAH *   CLEAR     68  68 100 CALM      29.98F
$$

IAZ047>049-059>061-072>074-084-140600-
   CENTRAL IOWA

CITY           SKY/WX    TMP DP  RH WIND       PRES   REMARKS
AMES           MOCLDY    70  63  78 W6        29.93F
ANKENY *       MOCLDY    68  66  94 CALM      29.93S
CHARITON *     CLEAR     70  66  88 SW5       29.96S
DES MOINES     MOCLDY    74  65  73 SW6       29.93F
GRINNELL*      CLEAR     68  64  88 SW5       29.94S
KNOXVILLE *    CLEAR     70  64  83 SW6       29.93S
MARSHALLTOWN     N/A     67  63  87 SW3       29.92S
PELLA *        CLEAR     69  66  92 W3        29.95R
PERRY *        LGT RAIN  70  68  94 NW3       29.94F
$$

IAZ004>006-015-016-023>025-035-036-140600-
   NORTH CENTRAL IOWA

CITY           SKY/WX    TMP DP  RH WIND       PRES   REMARKS
ALGONA *       PTCLDY    64  61  88 N6        29.97S
CLARION *      MOCLDY    66  64  94 N3        29.95S
ESTHERVILLE    CLEAR     59  56  89 NW7       29.97S
FORT DODGE *   MOCLDY    70  63  78 N5        29.96S
MASON CITY     PTCLDY    61  57  87 NW5       29.96S
FOREST CITY *  PTCLDY    63  54  72 N3        29.96S
IOWA FALLS *   MOCLDY    68  63  83 SW8       29.96R
$$

IAZ007>011-017>019-026>030-037>042-050>054-066-140600-
   NORTHEAST IOWA

CITY           SKY/WX    TMP DP  RH WIND       PRES   REMARKS
CEDAR RAPIDS   CLEAR     66  65  96 SW5       29.91F
CHARLES CITY * MOCLDY    66  57  72 N6        29.94S
CLINTON *        N/A     64  64 100 CALM      29.95R VSB 3/4
DECORAH *        N/A    N/A N/A N/A MISG        N/A
DUBUQUE        CLEAR     62  59  90 CALM      29.93S
MONTICELLO *   CLEAR     64  63  94 CALM      29.92S
OELWEIN *      PTCLDY    68  68 100 CALM      29.93S
WATERLOO       PTCLDY    66  63  90 NW5       29.91S
$$

IAZ064-065-067-068-078-140600-
   EAST CENTRAL IOWA

CITY           SKY/WX    TMP DP  RH WIND       PRES   REMARKS
DAVENPORT        N/A     65  62  90 CALM      29.93S
IOWA CITY      CLEAR     67  65  93 CALM      29.93F
MT. PLEASANT * PTCLDY    70  68  94 SW5       29.94R
MUSCATINE *    CLEAR     68  66  94 CALM      29.92S FOG
QUAD CITIES    CLEAR     66  64  93 CALM      29.92S
$$

IAZ062-063-075>077-085>089-095>099-140600-
   SOUTHEAST IOWA

CITY           SKY/WX    TMP DP  RH WIND       PRES   REMARKS
BURLINGTON     MOCLDY    70  68  93 CALM      29.93R
FAIRFIELD *    CLEAR     66  64  94 SW6       29.94S
FORT MADISON * PTCLDY    72  70  94 S3        29.95R
KEOKUK *       PTCLDY    72  68  88 CALM      29.93R
OSKALOOSA *      N/A     68  66  94 W5        29.94S
CENTERVILLE *  CLEAR     68  68 100 SW3       29.97S
OTTUMWA        CLEAR     68  66  93 W5        29.93F
WASHINGTON *   CLEAR     68  64  88 W6        29.93S
$$

ABBREVIATIONS USED IN REMARKS
   TC - TEMPERATURES IN CELSIUS
  WCI - WIND CHILL INDEX
   HX - HEAT INDEX
  VSB - VISIBILITY
$$



USA.gov is the U.S. government's official web portal to all federal, state and local government web resources and services.